Estación Meteorológica Peña el Pijo (Robertgarden) [ 07/23/19 00:55:22 CEST ]

Fecha Hora Presion(HPa) Temp (°C) Humedad % Rocio (°C) Viento ( m/s) Direccion Lluvia 1Hora(mm) Lluvia 24H(mm) LLuvia Total(mm)
2019-Jun-06 01:01:56 1007.400 15.6 54 6.3         318.05
2019-Jun-06 02:01:43 1007.200 16.4 59 8.4         318.05
2019-Jun-06 03:02:15 1006.900 16.7 61 9.2         318.05
2019-Jun-06 04:04:21 1006.800 21.3 67 14.9         318.05
2019-Jun-06 05:03:15 1006.300 - - -         318.05
2019-Jun-06 06:09:20 1006.500 - - - - NNE     318.05
2019-Jun-06 07:08:43 1006.500 - - - - NNE     318.05
2019-Jun-06 08:09:24 1006.400 - - - - NNE     318.05
2019-Jun-06 09:09:00 1006.300 - - - - NNE     318.05
2019-Jun-06 10:09:29 1006.200 - - - - NNE     318.05
2019-Jun-06 11:09:46 1006.100 - - - - NNE     318.05
2019-Jun-06 12:09:14 1005.700 - - - - NNE     318.05
2019-Jun-06 13:09:13 1005.300 - - - - NNE     318.05
2019-Jun-06 14:09:35 1004.800 - - - - NNE     318.05
2019-Jun-06 15:09:04 1004.300 - - - - NNE     318.05
2019-Jun-06 16:09:19 1003.600 - - - - NNE     318.05
2019-Jun-06 17:08:54 1002.900 - - - - NNE     318.05
2019-Jun-06 18:08:47 1002.400 - - - - NNE     318.05
2019-Jun-06 19:09:32 1002.000 - - - - NNE     318.05
2019-Jun-06 20:09:13 1002.600 - - - - NNE     318.05
2019-Jun-06 21:09:13 1003.200 - - - - NNE     318.05
2019-Jun-06 22:09:21 1003.900 - - - - NNE     318.05
2019-Jun-06 23:09:34 1004.500 - - - - NNE     318.05

Temperatura Máxima:21°    Temperatura Mínima:
Presión Máxima:1007.400 Hpa    Presión Mínima:1002.000 Hpa


Volver